| time (UTC) | temp F | wind direction | speed MPH | gust MPH | rain 1hr in | rain 24hr in | rain mn in | humidity % | barometer mb |
| 20260905163035 | 86 | 201 | 0.0 | 0.0 | 0.00 | 0.00 | 0.00 | 67 | 1014.8 |
| 20260905162813 | 86 | 152 | 0.0 | 0.0 | 0.00 | 0.00 | 0.00 | 67 | 1017.5 |
| 20260905162517 | 85 | 222 | 0.0 | 0.0 | 0.00 | 0.00 | 0.00 | 67 | 1014.7 |
| 20260905162352 | 86 | 209 | 0.0 | 0.0 | 0.00 | 0.00 | 0.00 | 67 | 1017.5 |
| 20260905162048 | 85 | 172 | 0.0 | 0.0 | 0.00 | 0.00 | 0.00 | 67 | 1014.6 |
| 20260905161829 | 86 | 166 | 0.0 | 0.0 | 0.00 | 0.00 | 0.00 | 67 | 1017.5 |
| 20260905161559 | 85 | 151 | 0.0 | 0.0 | 0.00 | 0.00 | 0.00 | 67 | 1014.6 |
| 20260905161347 | 85 | 133 | 0.0 | 0.0 | 0.00 | 0.00 | 0.00 | 66 | 1017.4 |
| 20260905161001 | 85 | 191 | 0.0 | 0.0 | 0.00 | 0.00 | 0.00 | 69 | 1014.7 |
| 20260905160823 | 85 | 292 | 0.0 | 0.0 | 0.00 | 0.00 | 0.00 | 70 | 1017.4 |
| 20260905160553 | 84 | 226 | 0.0 | 0.0 | 0.00 | 0.00 | 0.00 | 69 | 1014.6 |
| 20260905160322 | 85 | 162 | 0.0 | 0.0 | 0.00 | 0.00 | 0.00 | 68 | 1017.3 |
| 20260905160043 | 84 | 139 | 0.0 | 0.0 | 0.00 | 0.00 | 0.00 | 70 | 1014.6 |
| 20260905155840 | 84 | 253 | 0.0 | 0.0 | 0.00 | 0.11 | 0.00 | 72 | 1017.4 |
| 20260905155515 | 84 | 208 | 0.0 | 0.0 | 0.00 | 0.11 | 0.00 | 73 | 1014.6 |
| 20260905155316 | 84 | 195 | 0.0 | 0.0 | 0.00 | 0.11 | 0.00 | 72 | 1017.4 |
| 20260905155058 | 83 | 256 | 0.0 | 0.0 | 0.00 | 0.11 | 0.00 | 72 | 1014.7 |
| 20260905154814 | 84 | 143 | 0.0 | 0.0 | 0.00 | 0.11 | 0.00 | 74 | 1017.3 |
| 20260905154557 | 83 | 241 | 0.0 | 0.0 | 0.00 | 0.11 | 0.00 | 74 | 1014.6 |
| 20260905154327 | 84 | 180 | 0.0 | 0.0 | 0.00 | 0.11 | 0.00 | 73 | 1017.3 |
| 20260905154016 | 83 | 210 | 0.0 | 0.0 | 0.00 | 0.11 | 0.00 | 74 | 1014.6 |
| 20260905153824 | 83 | 226 | 0.0 | 0.0 | 0.00 | 0.11 | 0.00 | 74 | 1017.3 |
| 20260905153505 | 83 | 214 | 0.0 | 0.0 | 0.00 | 0.11 | 0.00 | 75 | 1014.5 |
| 20260905153322 | 83 | 185 | 0.0 | 0.0 | 0.00 | 0.11 | 0.00 | 75 | 1017.3 |
| 20260905153037 | 83 | 200 | 0.0 | 0.0 | 0.00 | 0.11 | 0.00 | 75 | 1014.6 |
| 20260905152820 | 83 | 233 | 0.0 | 0.0 | 0.00 | 0.11 | 0.00 | 76 | 1017.2 |
| 20260905152528 | 82 | 199 | 0.0 | 0.0 | 0.00 | 0.11 | 0.00 | 77 | 1014.6 |
| 20260905152317 | 83 | 214 | 0.0 | 0.0 | 0.00 | 0.11 | 0.00 | 77 | 1017.2 |
| 20260905152019 | 82 | 216 | 0.0 | 0.0 | 0.00 | 0.11 | 0.00 | 77 | 1014.5 |
| 20260905151815 | 83 | 228 | 0.0 | 0.0 | 0.00 | 0.11 | 0.00 | 77 | 1017.3 |
| 20260905151519 | 82 | 213 | 0.0 | 0.0 | 0.00 | 0.11 | 0.00 | 77 | 1014.5 |
| 20260905151330 | 82 | 239 | 0.0 | 0.0 | 0.00 | 0.11 | 0.00 | 78 | 1017.2 |
| 20260905151056 | 82 | 193 | 0.0 | 0.0 | 0.00 | 0.11 | 0.00 | 78 | 1014.4 |
| 20260905150827 | 82 | 215 | 0.0 | 0.0 | 0.00 | 0.11 | 0.00 | 78 | 1017.2 |
| 20260905150548 | 82 | 228 | 0.0 | 0.0 | 0.00 | 0.11 | 0.00 | 79 | 1014.3 |
| 20260905150323 | 82 | 214 | 0.0 | 0.0 | 0.00 | 0.11 | 0.00 | 80 | 1017.2 |
| 20260905150041 | 81 | 166 | 0.0 | 0.0 | 0.00 | 0.11 | 0.00 | 79 | 1014.5 |
| 20260905145839 | 81 | 195 | 0.0 | 0.0 | 0.00 | 0.11 | 0.00 | 80 | 1017.3 |
| 20260905145519 | 81 | 217 | 0.0 | 0.0 | 0.00 | 0.11 | 0.00 | 80 | 1014.6 |
| 20260905145315 | 81 | 178 | 0.0 | 0.0 | 0.00 | 0.11 | 0.00 | 80 | 1017.4 |
| 20260905145001 | 80 | 194 | 0.0 | 0.0 | 0.00 | 0.11 | 0.00 | 81 | 1014.7 |
| 20260905144833 | 81 | 194 | 0.0 | 0.0 | 0.00 | 0.11 | 0.00 | 82 | 1017.4 |
| 20260905144555 | 80 | 227 | 0.0 | 0.0 | 0.00 | 0.11 | 0.00 | 81 | 1014.6 |
| 20260905144329 | 80 | 170 | 0.0 | 0.0 | 0.00 | 0.11 | 0.00 | 82 | 1017.3 |
| 20260905144046 | 80 | 197 | 0.0 | 0.0 | 0.00 | 0.11 | 0.00 | 82 | 1014.6 |
| 20260905143824 | 80 | 214 | 0.0 | 0.0 | 0.00 | 0.11 | 0.00 | 83 | 1017.2 |
| 20260905143540 | 79 | 149 | 0.0 | 0.0 | 0.00 | 0.11 | 0.00 | 84 | 1014.5 |
| 20260905143340 | 79 | 191 | 0.0 | 0.0 | 0.00 | 0.11 | 0.00 | 85 | 1017.2 |
| 20260905143031 | 79 | 189 | 0.0 | 0.0 | 0.00 | 0.11 | 0.00 | 85 | 1014.5 |
| 20260905142830 | 79 | 197 | 0.0 | 0.0 | 0.00 | 0.11 | 0.00 | 86 | 1017.2 |
| 20260905142528 | 78 | 159 | 0.0 | 0.0 | 0.00 | 0.11 | 0.00 | 87 | 1014.5 |
| 20260905142325 | 79 | 206 | 0.0 | 0.0 | 0.00 | 0.11 | 0.00 | 87 | 1017.2 |
| 20260905142010 | 78 | 143 | 0.0 | 0.0 | 0.00 | 0.11 | 0.00 | 88 | 1014.5 |
| 20260905141822 | 78 | 184 | 0.0 | 0.0 | 0.00 | 0.11 | 0.00 | 88 | 1017.2 |
| 20260905141505 | 77 | 185 | 0.0 | 0.0 | 0.00 | 0.11 | 0.00 | 88 | 1014.4 |
| 20260905141321 | 78 | 184 | 0.0 | 0.0 | 0.00 | 0.11 | 0.00 | 88 | 1017.2 |
| 20260905141058 | 77 | 185 | 0.0 | 0.0 | 0.00 | 0.11 | 0.00 | 88 | 1014.4 |
| 20260905140817 | 78 | 147 | 0.0 | 0.0 | 0.00 | 0.11 | 0.00 | 88 | 1017.1 |
| 20260905140552 | 77 | 153 | 0.0 | 0.0 | 0.00 | 0.11 | 0.00 | 89 | 1014.5 |
| 20260905140316 | 77 | 222 | 0.0 | 0.0 | 0.00 | 0.11 | 0.00 | 89 | 1017.2 |
| 20260905140045 | 76 | 199 | 0.0 | 0.0 | 0.00 | 0.11 | 0.00 | 90 | 1014.6 |
| 20260905135814 | 77 | 63 | 0.0 | 0.0 | 0.00 | 0.14 | 0.00 | 90 | 1017.2 |
| 20260905135538 | 76 | 62 | 0.0 | 0.0 | 0.00 | 0.14 | 0.00 | 90 | 1014.6 |
| 20260905135314 | 76 | 63 | 0.0 | 1.0 | 0.00 | 0.14 | 0.00 | 90 | 1017.3 |
| 20260905135030 | 75 | 63 | 0.0 | 1.0 | 0.00 | 0.14 | 0.00 | 90 | 1014.7 |
| 20260905134833 | 76 | 63 | 0.0 | 3.0 | 0.00 | 0.14 | 0.00 | 90 | 1017.4 |
| 20260905134519 | 75 | 63 | 0.0 | 4.0 | 0.00 | 0.14 | 0.00 | 90 | 1014.7 |
| 20260905134351 | 75 | 63 | 0.0 | 4.0 | 0.00 | 0.14 | 0.00 | 90 | 1017.3 |
| 20260905134051 | 75 | 63 | 1.0 | 4.0 | 0.00 | 0.14 | 0.00 | 90 | 1014.5 |
| 20260905133827 | 75 | 63 | 2.0 | 4.0 | 0.00 | 0.14 | 0.00 | 91 | 1017.2 |
| 20260905133543 | 74 | 63 | 2.0 | 4.0 | 0.00 | 0.14 | 0.00 | 91 | 1014.4 |
| 20260905133325 | 75 | 65 | 2.0 | 4.0 | 0.00 | 0.14 | 0.00 | 91 | 1017.1 |
| 20260905133038 | 74 | 54 | 2.0 | 4.0 | 0.00 | 0.14 | 0.00 | 91 | 1014.5 |
| 20260905132824 | 75 | 197 | 2.0 | 3.0 | 0.00 | 0.14 | 0.00 | 91 | 1017.0 |
| 20260905132529 | 74 | 198 | 0.0 | 2.0 | 0.00 | 0.14 | 0.00 | 91 | 1014.4 |
| 20260905132322 | 74 | 198 | 0.0 | 2.0 | 0.00 | 0.14 | 0.00 | 91 | 1016.9 |
| 20260905132021 | 74 | 197 | 1.0 | 2.0 | 0.00 | 0.14 | 0.00 | 91 | 1014.2 |
| 20260905131820 | 74 | 198 | 1.0 | 2.0 | 0.00 | 0.14 | 0.00 | 91 | 1016.8 |
| 20260905131523 | 73 | 197 | 0.0 | 3.0 | 0.00 | 0.14 | 0.00 | 91 | 1014.2 |
| 20260905131338 | 74 | 197 | 1.0 | 3.0 | 0.00 | 0.14 | 0.00 | 91 | 1016.8 |
| 20260905131036 | 73 | 198 | 1.0 | 3.0 | 0.00 | 0.14 | 0.00 | 91 | 1014.1 |
| 20260905130816 | 74 | 197 | 2.0 | 3.0 | 0.00 | 0.14 | 0.00 | 91 | 1016.7 |
| 20260905130530 | 73 | 197 | 1.0 | 3.0 | 0.00 | 0.14 | 0.00 | 91 | 1013.9 |
| 20260905130353 | 73 | 198 | 1.0 | 3.0 | 0.00 | 0.14 | 0.00 | 91 | 1016.6 |
| 20260905130056 | 72 | 198 | 0.0 | 2.0 | 0.00 | 0.14 | 0.00 | 91 | 1013.8 |
| 20260905125852 | 73 | 197 | 1.0 | 2.0 | 0.00 | 0.16 | 0.00 | 91 | 1016.5 |
| 20260905125531 | 72 | 197 | 0.0 | 2.0 | 0.00 | 0.16 | 0.00 | 90 | 1013.8 |
| 20260905125329 | 72 | 198 | 0.0 | 2.0 | 0.00 | 0.16 | 0.00 | 90 | 1016.5 |
| 20260905125025 | 72 | 197 | 0.0 | 2.0 | 0.00 | 0.16 | 0.00 | 90 | 1013.8 |
| 20260905124827 | 72 | 198 | 1.0 | 2.0 | 0.00 | 0.16 | 0.00 | 90 | 1016.5 |
| 20260905124506 | 72 | 198 | 1.0 | 2.0 | 0.00 | 0.16 | 0.00 | 90 | 1013.7 |
| 20260905124325 | 72 | 198 | 1.0 | 3.0 | 0.00 | 0.16 | 0.00 | 90 | 1016.4 |
| 20260905124101 | 72 | 197 | 1.0 | 3.0 | 0.00 | 0.16 | 0.00 | 90 | 1013.6 |
| 20260905123820 | 72 | 197 | 1.0 | 3.0 | 0.00 | 0.16 | 0.00 | 89 | 1016.4 |
| 20260905123531 | 71 | 198 | 2.0 | 3.0 | 0.00 | 0.16 | 0.00 | 89 | 1013.7 |
| 20260905123339 | 72 | 359 | 2.0 | 3.0 | 0.00 | 0.16 | 0.00 | 89 | 1016.4 |
| 20260905123108 | 71 | 197 | 1.0 | 3.0 | 0.00 | 0.16 | 0.00 | 89 | 1013.7 |
| 20260905122817 | 72 | 197 | 0.0 | 3.0 | 0.00 | 0.16 | 0.00 | 89 | 1016.3 |
| 20260905122549 | 72 | 197 | 1.0 | 3.0 | 0.00 | 0.16 | 0.00 | 88 | 1013.4 |
| 20260905122315 | 72 | 198 | 2.0 | 2.0 | 0.00 | 0.16 | 0.00 | 88 | 1016.1 |
| 20260905122040 | 72 | 198 | 1.0 | 2.0 | 0.00 | 0.16 | 0.00 | 89 | 1013.4 |
| 20260905121831 | 73 | 198 | 1.0 | 2.0 | 0.00 | 0.16 | 0.00 | 89 | 1016.2 |
| 20260905121530 | 73 | 198 | 0.0 | 2.0 | 0.00 | 0.16 | 0.00 | 89 | 1013.3 |
| 20260905121329 | 73 | 197 | 0.0 | 2.0 | 0.00 | 0.16 | 0.00 | 90 | 1016.1 |
| 20260905121014 | 73 | 197 | 1.0 | 2.0 | 0.00 | 0.16 | 0.00 | 89 | 1013.3 |
| 20260905120826 | 73 | 197 | 2.0 | 2.0 | 0.00 | 0.16 | 0.00 | 89 | 1016.0 |
| 20260905120515 | 73 | 197 | 0.0 | 1.0 | 0.00 | 0.16 | 0.00 | 88 | 1013.4 |
| 20260905120323 | 73 | 197 | 0.0 | 1.0 | 0.00 | 0.16 | 0.00 | 88 | 1016.1 |
| 20260905120046 | 73 | 197 | 0.0 | 1.0 | 0.00 | 0.16 | 0.00 | 89 | 1013.4 |
| 20260905115821 | 73 | 197 | 0.0 | 2.0 | 0.00 | 0.17 | 0.00 | 89 | 1016.0 |
| 20260905115540 | 73 | 197 | 0.0 | 2.0 | 0.00 | 0.17 | 0.00 | 89 | 1013.2 |
| 20260905115339 | 74 | 197 | 1.0 | 2.0 | 0.00 | 0.17 | 0.00 | 89 | 1016.0 |
| 20260905115002 | 73 | 197 | 0.0 | 2.0 | 0.00 | 0.17 | 0.00 | 89 | 1013.2 |
| 20260905114816 | 74 | 197 | 1.0 | 2.0 | 0.00 | 0.17 | 0.00 | 89 | 1015.9 |
| 20260905114601 | 73 | 197 | 0.0 | 0.0 | 0.00 | 0.17 | 0.00 | 89 | 1013.3 |
| 20260905114314 | 74 | 197 | 0.0 | 0.0 | 0.00 | 0.17 | 0.00 | 88 | 1016.0 |
| 20260905114048 | 73 | 197 | 0.0 | 0.0 | 0.00 | 0.17 | 0.00 | 88 | 1013.3 |
| 20260905113852 | 74 | 197 | 0.0 | 0.0 | 0.00 | 0.17 | 0.00 | 88 | 1016.0 |
| 20260905113510 | 73 | 197 | 0.0 | 0.0 | 0.00 | 0.17 | 0.00 | 88 | 1013.3 |
| 20260905113329 | 74 | 197 | 0.0 | 0.0 | 0.00 | 0.17 | 0.00 | 88 | 1016.0 |
| 20260905113103 | 73 | 197 | 0.0 | 0.0 | 0.00 | 0.17 | 0.00 | 88 | 1013.2 |
| 20260905112827 | 74 | 197 | 0.0 | 0.0 | 0.00 | 0.17 | 0.00 | 88 | 1015.9 |
| 20260905112552 | 73 | 197 | 0.0 | 0.0 | 0.00 | 0.17 | 0.00 | 88 | 1013.2 |
| 20260905112324 | 74 | 197 | 0.0 | 0.0 | 0.00 | 0.17 | 0.00 | 87 | 1015.9 |
| 20260905112024 | 73 | 197 | 0.0 | 0.0 | 0.00 | 0.17 | 0.00 | 87 | 1013.2 |
| 20260905111822 | 74 | 197 | 0.0 | 0.0 | 0.00 | 0.17 | 0.00 | 87 | 1015.8 |
| 20260905111507 | 73 | 197 | 0.0 | 0.0 | 0.00 | 0.17 | 0.00 | 87 | 1013.1 |
| 20260905111320 | 74 | 197 | 0.0 | 0.0 | 0.00 | 0.17 | 0.00 | 87 | 1015.8 |
| 20260905111100 | 74 | 197 | 0.0 | 0.0 | 0.00 | 0.17 | 0.00 | 87 | 1012.9 |
| 20260905110839 | 74 | 197 | 0.0 | 0.0 | 0.00 | 0.17 | 0.00 | 87 | 1015.7 |
| 20260905110548 | 74 | 197 | 0.0 | 1.0 | 0.00 | 0.17 | 0.00 | 87 | 1013.0 |
| 20260905110330 | 74 | 197 | 0.0 | 1.0 | 0.00 | 0.17 | 0.00 | 87 | 1015.7 |
| 20260905110040 | 74 | 197 | 0.0 | 1.0 | 0.00 | 0.17 | 0.00 | 87 | 1012.9 |
| 20260905105829 | 74 | 197 | 0.0 | 2.0 | 0.00 | 0.17 | 0.00 | 87 | 1015.7 |
| 20260905105530 | 74 | 197 | 0.0 | 2.0 | 0.00 | 0.17 | 0.00 | 86 | 1012.9 |
| 20260905105326 | 75 | 197 | 1.0 | 2.0 | 0.00 | 0.17 | 0.00 | 86 | 1015.8 |
| 20260905105058 | 74 | 197 | 1.0 | 2.0 | 0.00 | 0.17 | 0.00 | 86 | 1013.1 |
| 20260905104824 | 75 | 197 | 0.0 | 1.0 | 0.00 | 0.17 | 0.00 | 87 | 1015.8 |
| 20260905104547 | 75 | 197 | 0.0 | 1.0 | 0.00 | 0.17 | 0.00 | 87 | 1013.1 |
| 20260905104321 | 75 | 197 | 0.0 | 2.0 | 0.00 | 0.17 | 0.00 | 87 | 1015.8 |
| 20260905104022 | 75 | 197 | 0.0 | 2.0 | 0.00 | 0.17 | 0.00 | 87 | 1013.1 |
| 20260905103819 | 75 | 197 | 0.0 | 2.0 | 0.00 | 0.17 | 0.00 | 87 | 1015.8 |
| 20260905103600 | 75 | 197 | 1.0 | 2.0 | 0.00 | 0.17 | 0.00 | 87 | 1013.0 |
| 20260905103337 | 75 | 197 | 1.0 | 2.0 | 0.00 | 0.17 | 0.00 | 87 | 1015.7 |
| 20260905103032 | 75 | 197 | 0.0 | 1.0 | 0.00 | 0.17 | 0.00 | 87 | 1013.0 |
| 20260905102814 | 76 | 197 | 0.0 | 0.0 | 0.00 | 0.17 | 0.00 | 87 | 1015.7 |
| 20260905102514 | 75 | 197 | 0.0 | 0.0 | 0.00 | 0.17 | 0.00 | 87 | 1013.1 |
| 20260905102332 | 76 | 197 | 0.0 | 0.0 | 0.00 | 0.17 | 0.00 | 87 | 1015.8 |
| 20260905102006 | 75 | 197 | 0.0 | 1.0 | 0.00 | 0.17 | 0.00 | 87 | 1013.0 |
| 20260905101830 | 76 | 197 | 0.0 | 1.0 | 0.00 | 0.17 | 0.00 | 86 | 1015.8 |
| 20260905101607 | 75 | 197 | 0.0 | 1.0 | 0.00 | 0.17 | 0.00 | 86 | 1013.0 |
| 20260905101329 | 76 | 197 | 0.0 | 1.0 | 0.00 | 0.17 | 0.00 | 86 | 1015.8 |
| 20260905101052 | 75 | 197 | 0.0 | 0.0 | 0.00 | 0.17 | 0.00 | 86 | 1013.0 |
| 20260905100826 | 76 | 197 | 0.0 | 0.0 | 0.00 | 0.17 | 0.00 | 86 | 1015.8 |
| 20260905100544 | 75 | 197 | 0.0 | 0.0 | 0.00 | 0.17 | 0.00 | 86 | 1012.9 |
| 20260905100324 | 76 | 197 | 0.0 | 0.0 | 0.00 | 0.17 | 0.00 | 86 | 1015.7 |
| 20260905100108 | 76 | 197 | 0.0 | 1.0 | 0.00 | 0.17 | 0.00 | 86 | 1012.9 |
| 20260905095822 | 76 | 197 | 0.0 | 3.0 | 0.00 | 0.17 | 0.00 | 86 | 1015.7 |
| 20260905095528 | 76 | 197 | 0.0 | 3.0 | 0.00 | 0.17 | 0.00 | 86 | 1012.9 |
| 20260905095320 | 76 | 197 | 0.0 | 3.0 | 0.00 | 0.17 | 0.00 | 86 | 1015.6 |
| 20260905095020 | 76 | 197 | 1.0 | 3.0 | 0.00 | 0.17 | 0.00 | 86 | 1012.9 |
| 20260905094818 | 76 | 197 | 0.0 | 4.0 | 0.00 | 0.17 | 0.00 | 86 | 1015.7 |
| 20260905094519 | 76 | 197 | 0.0 | 7.0 | 0.00 | 0.17 | 0.00 | 86 | 1012.9 |
| 20260905094316 | 76 | 197 | 1.0 | 7.0 | 0.00 | 0.17 | 0.00 | 86 | 1015.7 |
| 20260905094058 | 76 | 197 | 3.0 | 7.0 | 0.00 | 0.17 | 0.00 | 86 | 1013.0 |
| 20260905093829 | 76 | 197 | 1.0 | 4.0 | 0.00 | 0.17 | 0.00 | 86 | 1015.8 |
| 20260905093528 | 76 | 197 | 2.0 | 4.0 | 0.00 | 0.17 | 0.00 | 86 | 1012.9 |
| 20260905093326 | 76 | 197 | 2.0 | 4.0 | 0.00 | 0.17 | 0.00 | 86 | 1015.6 |
| 20260905093013 | 76 | 197 | 2.0 | 5.0 | 0.00 | 0.17 | 0.00 | 86 | 1012.8 |
| 20260905092824 | 76 | 197 | 2.0 | 6.0 | 0.00 | 0.17 | 0.00 | 86 | 1015.5 |
| 20260905092506 | 76 | 197 | 3.0 | 6.0 | 0.00 | 0.17 | 0.00 | 86 | 1012.8 |
| 20260905092321 | 76 | 197 | 3.0 | 6.0 | 0.00 | 0.17 | 0.00 | 86 | 1015.6 |
| 20260905092056 | 76 | 195 | 4.0 | 6.0 | 0.00 | 0.17 | 0.00 | 86 | 1012.9 |
| 20260905091839 | 76 | 201 | 4.0 | 8.0 | 0.00 | 0.17 | 0.00 | 86 | 1015.5 |
| 20260905091555 | 76 | 236 | 3.0 | 8.0 | 0.00 | 0.17 | 0.00 | 86 | 1012.9 |
| 20260905091331 | 76 | 191 | 4.0 | 8.0 | 0.00 | 0.17 | 0.00 | 86 | 1015.6 |
| 20260905091041 | 76 | 218 | 4.0 | 8.0 | 0.00 | 0.17 | 0.00 | 86 | 1012.9 |
| 20260905090850 | 76 | 210 | 4.0 | 6.0 | 0.00 | 0.17 | 0.00 | 86 | 1015.7 |
| 20260905090512 | 76 | 224 | 3.0 | 6.0 | 0.00 | 0.17 | 0.00 | 86 | 1013.0 |
| 20260905090327 | 76 | 199 | 3.0 | 6.0 | 0.00 | 0.17 | 0.00 | 86 | 1015.6 |
| 20260905090012 | 76 | 199 | 3.0 | 6.0 | 0.00 | 0.17 | 0.00 | 86 | 1013.0 |
| 20260905085826 | 76 | 199 | 4.0 | 6.0 | 0.00 | 0.17 | 0.00 | 86 | 1015.7 |
| 20260905085504 | 76 | 194 | 3.0 | 6.0 | 0.00 | 0.17 | 0.00 | 86 | 1012.9 |
| 20260905085324 | 76 | 195 | 4.0 | 6.0 | 0.00 | 0.17 | 0.00 | 85 | 1015.7 |
| 20260905085058 | 76 | 203 | 2.0 | 4.0 | 0.00 | 0.17 | 0.00 | 85 | 1012.9 |
| 20260905084843 | 76 | 187 | 2.0 | 4.0 | 0.00 | 0.17 | 0.00 | 85 | 1015.6 |
| 20260905084528 | 76 | 187 | 1.0 | 4.0 | 0.00 | 0.17 | 0.00 | 85 | 1012.9 |
| 20260905084340 | 76 | 187 | 2.0 | 4.0 | 0.00 | 0.17 | 0.00 | 85 | 1015.5 |
| 20260905084016 | 76 | 187 | 2.0 | 5.0 | 0.00 | 0.17 | 0.00 | 85 | 1012.9 |
| 20260905083830 | 76 | 187 | 2.0 | 5.0 | 0.00 | 0.17 | 0.00 | 85 | 1015.6 |
| 20260905083502 | 76 | 187 | 2.0 | 5.0 | 0.00 | 0.17 | 0.00 | 85 | 1012.9 |
| 20260905083327 | 76 | 210 | 2.0 | 5.0 | 0.00 | 0.17 | 0.00 | 85 | 1015.5 |
| 20260905083109 | 76 | 208 | 2.0 | 5.0 | 0.00 | 0.17 | 0.00 | 85 | 1012.8 |
| 20260905082844 | 76 | 205 | 3.0 | 5.0 | 0.00 | 0.17 | 0.00 | 85 | 1015.5 |
| 20260905082528 | 75 | 205 | 2.0 | 5.0 | 0.00 | 0.17 | 0.00 | 85 | 1012.7 |
| 20260905082320 | 76 | 205 | 2.0 | 5.0 | 0.00 | 0.17 | 0.00 | 85 | 1015.4 |
| 20260905082021 | 75 | 204 | 2.0 | 5.0 | 0.00 | 0.17 | 0.00 | 85 | 1012.7 |
| 20260905081818 | 76 | 205 | 3.0 | 5.0 | 0.00 | 0.17 | 0.00 | 85 | 1015.4 |
| 20260905081518 | 75 | 204 | 3.0 | 5.0 | 0.00 | 0.17 | 0.00 | 85 | 1012.8 |
| 20260905081335 | 75 | 205 | 3.0 | 5.0 | 0.00 | 0.17 | 0.00 | 85 | 1015.4 |
| 20260905081040 | 75 | 169 | 2.0 | 5.0 | 0.00 | 0.17 | 0.00 | 85 | 1012.7 |
| 20260905080851 | 75 | 169 | 4.0 | 5.0 | 0.00 | 0.17 | 0.00 | 85 | 1015.5 |
| 20260905080504 | 75 | 177 | 2.0 | 5.0 | 0.00 | 0.17 | 0.00 | 85 | 1012.9 |
| 20260905080327 | 75 | 176 | 3.0 | 5.0 | 0.00 | 0.17 | 0.00 | 85 | 1015.6 |
| 20260905080058 | 75 | 177 | 1.0 | 2.0 | 0.00 | 0.17 | 0.00 | 84 | 1013.0 |
| 20260905075844 | 75 | 177 | 1.0 | 2.0 | 0.00 | 0.17 | 0.00 | 84 | 1015.6 |
| 20260905075529 | 75 | 177 | 0.0 | 1.0 | 0.00 | 0.17 | 0.00 | 84 | 1013.0 |
| 20260905075341 | 75 | 177 | 0.0 | 1.0 | 0.00 | 0.17 | 0.00 | 83 | 1015.8 |
| 20260905075054 | 75 | 177 | 0.0 | 1.0 | 0.00 | 0.17 | 0.00 | 83 | 1013.0 |
| 20260905074837 | 75 | 177 | 0.0 | 1.0 | 0.00 | 0.17 | 0.00 | 83 | 1015.8 |
| 20260905074523 | 75 | 177 | 0.0 | 1.0 | 0.00 | 0.17 | 0.00 | 83 | 1013.0 |
| 20260905074329 | 75 | 177 | 0.0 | 0.0 | 0.00 | 0.17 | 0.00 | 83 | 1015.8 |
| 20260905074050 | 75 | 177 | 0.0 | 0.0 | 0.00 | 0.17 | 0.00 | 83 | 1013.1 |
| 20260905073846 | 75 | 177 | 0.0 | 0.0 | 0.00 | 0.17 | 0.00 | 83 | 1015.9 |
| 20260905073514 | 75 | 177 | 0.0 | 0.0 | 0.00 | 0.17 | 0.00 | 83 | 1013.2 |
| 20260905073343 | 75 | 177 | 0.0 | 0.0 | 0.00 | 0.17 | 0.00 | 83 | 1016.0 |
| 20260905073046 | 75 | 177 | 0.0 | 0.0 | 0.00 | 0.17 | 0.00 | 83 | 1013.3 |
| 20260905072820 | 75 | 177 | 0.0 | 0.0 | 0.00 | 0.17 | 0.00 | 83 | 1016.0 |
| 20260905072538 | 75 | 177 | 0.0 | 0.0 | 0.00 | 0.17 | 0.00 | 83 | 1013.4 |
| 20260905072317 | 75 | 176 | 0.0 | 0.0 | 0.00 | 0.17 | 0.00 | 83 | 1016.1 |
| 20260905072032 | 75 | 177 | 0.0 | 1.0 | 0.00 | 0.17 | 0.00 | 83 | 1013.4 |
| 20260905071833 | 76 | 177 | 0.0 | 1.0 | 0.00 | 0.17 | 0.00 | 83 | 1016.0 |
| 20260905071518 | 75 | 176 | 0.0 | 1.0 | 0.00 | 0.17 | 0.00 | 83 | 1013.3 |
| 20260905071350 | 76 | 177 | 0.0 | 1.0 | 0.00 | 0.17 | 0.00 | 82 | 1016.0 |
| 20260905071051 | 75 | 177 | 0.0 | 1.0 | 0.00 | 0.17 | 0.00 | 82 | 1013.3 |
| 20260905070827 | 76 | 177 | 0.0 | 1.0 | 0.00 | 0.17 | 0.00 | 82 | 1016.1 |
| 20260905070540 | 75 | 176 | 0.0 | 1.0 | 0.00 | 0.17 | 0.00 | 82 | 1013.5 |
| 20260905070324 | 76 | 176 | 0.0 | 1.0 | 0.00 | 0.17 | 0.00 | 82 | 1016.3 |
| 20260905070030 | 76 | 177 | 0.0 | 1.0 | 0.00 | 0.17 | 0.00 | 82 | 1013.6 |
| 20260905065821 | 76 | 177 | 0.0 | 0.0 | 0.00 | 0.17 | 0.00 | 81 | 1016.4 |
| 20260905065522 | 76 | 177 | 0.0 | 0.0 | 0.00 | 0.17 | 0.00 | 81 | 1013.6 |
| 20260905065318 | 76 | 177 | 0.0 | 0.0 | 0.00 | 0.17 | 0.00 | 81 | 1016.4 |
| 20260905065018 | 76 | 177 | 0.0 | 0.0 | 0.00 | 0.17 | 0.00 | 81 | 1013.6 |
| 20260905064814 | 76 | 177 | 0.0 | 0.0 | 0.00 | 0.17 | 0.00 | 81 | 1016.3 |
| 20260905064618 | 76 | 177 | 0.0 | 0.0 | 0.00 | 0.17 | 0.00 | 81 | 1013.6 |
| 20260905064331 | 76 | 177 | 0.0 | 0.0 | 0.00 | 0.17 | 0.00 | 81 | 1016.4 |
| 20260905064052 | 76 | 177 | 0.0 | 1.0 | 0.00 | 0.17 | 0.00 | 81 | 1013.6 |
| 20260905063848 | 76 | 176 | 0.0 | 1.0 | 0.00 | 0.17 | 0.00 | 81 | 1016.3 |
| 20260905063514 | 76 | 177 | 0.0 | 2.0 | 0.00 | 0.17 | 0.00 | 81 | 1013.5 |
| 20260905063346 | 76 | 177 | 0.0 | 2.0 | 0.00 | 0.17 | 0.00 | 81 | 1016.3 |
| 20260905063046 | 76 | 176 | 0.0 | 2.0 | 0.00 | 0.17 | 0.00 | 81 | 1013.5 |
| 20260905062844 | 77 | 177 | 1.0 | 2.0 | 0.00 | 0.17 | 0.00 | 81 | 1016.2 |
| 20260905062519 | 76 | 177 | 0.0 | 2.0 | 0.00 | 0.17 | 0.00 | 81 | 1013.5 |
| 20260905062320 | 77 | 177 | 1.0 | 2.0 | 0.00 | 0.17 | 0.00 | 81 | 1016.3 |
| 20260905062103 | 76 | 177 | 0.0 | 3.0 | 0.00 | 0.17 | 0.00 | 81 | 1013.6 |
| 20260905061818 | 77 | 177 | 1.0 | 3.0 | 0.00 | 0.17 | 0.00 | 81 | 1016.4 |
| 20260905061604 | 76 | 177 | 1.0 | 3.0 | 0.00 | 0.17 | 0.00 | 81 | 1013.6 |
| 20260905061316 | 77 | 177 | 2.0 | 3.0 | 0.00 | 0.17 | 0.00 | 81 | 1016.4 |
| 20260905061054 | 76 | 177 | 2.0 | 3.0 | 0.00 | 0.17 | 0.00 | 81 | 1013.6 |
| 20260905060854 | 77 | 177 | 2.0 | 3.0 | 0.00 | 0.17 | 0.00 | 81 | 1016.4 |
| 20260905060529 | 76 | 177 | 0.0 | 1.0 | 0.00 | 0.17 | 0.00 | 80 | 1013.6 |
| 20260905060330 | 77 | 177 | 0.0 | 1.0 | 0.00 | 0.17 | 0.00 | 80 | 1016.3 |
| 20260905060116 | 76 | 177 | 0.0 | 2.0 | 0.00 | 0.17 | 0.00 | 80 | 1013.6 |
| 20260905055825 | 77 | 177 | 0.0 | 2.0 | 0.00 | 0.17 | 0.00 | 80 | 1016.3 |
| 20260905055553 | 76 | 177 | 0.0 | 2.0 | 0.00 | 0.17 | 0.00 | 80 | 1013.5 |
| 20260905055323 | 77 | 177 | 1.0 | 2.0 | 0.00 | 0.17 | 0.00 | 80 | 1016.4 |
| 20260905055046 | 77 | 177 | 1.0 | 2.0 | 0.00 | 0.17 | 0.00 | 80 | 1013.6 |
| 20260905054842 | 77 | 176 | 1.0 | 2.0 | 0.00 | 0.17 | 0.00 | 80 | 1016.3 |
| 20260905054539 | 77 | 177 | 0.0 | 3.0 | 0.00 | 0.17 | 0.00 | 80 | 1013.6 |
| 20260905054340 | 77 | 176 | 1.0 | 3.0 | 0.00 | 0.17 | 0.00 | 80 | 1016.4 |
| 20260905054039 | 77 | 177 | 1.0 | 3.0 | 0.00 | 0.17 | 0.00 | 80 | 1013.5 |
| 20260905053831 | 77 | 177 | 2.0 | 3.0 | 0.00 | 0.17 | 0.00 | 80 | 1016.4 |
| 20260905053534 | 77 | 177 | 1.0 | 3.0 | 0.00 | 0.17 | 0.00 | 80 | 1013.5 |
| 20260905053329 | 77 | 177 | 1.0 | 3.0 | 0.00 | 0.17 | 0.00 | 80 | 1016.4 |
| 20260905053016 | 77 | 177 | 1.0 | 3.0 | 0.00 | 0.17 | 0.00 | 79 | 1013.6 |
| 20260905052828 | 77 | 177 | 1.0 | 3.0 | 0.00 | 0.17 | 0.00 | 79 | 1016.3 |
| 20260905052505 | 77 | 177 | 0.0 | 3.0 | 0.00 | 0.17 | 0.00 | 79 | 1013.5 |
| 20260905052345 | 78 | 177 | 1.0 | 3.0 | 0.00 | 0.17 | 0.00 | 79 | 1016.3 |
| 20260905052038 | 77 | 176 | 1.0 | 6.0 | 0.00 | 0.17 | 0.00 | 79 | 1013.4 |
| 20260905051822 | 78 | 177 | 1.0 | 7.0 | 0.00 | 0.17 | 0.00 | 79 | 1016.3 |
| 20260905051530 | 77 | 176 | 1.0 | 7.0 | 0.00 | 0.17 | 0.00 | 79 | 1013.5 |
| 20260905051320 | 78 | 176 | 3.0 | 8.0 | 0.00 | 0.17 | 0.00 | 79 | 1016.1 |
| 20260905051020 | 77 | 156 | 3.0 | 8.0 | 0.00 | 0.17 | 0.00 | 80 | 1013.4 |
| 20260905050839 | 78 | 150 | 4.0 | 8.0 | 0.00 | 0.17 | 0.00 | 80 | 1016.2 |
| 20260905050600 | 77 | 155 | 3.0 | 8.0 | 0.00 | 0.17 | 0.00 | 80 | 1013.4 |
| 20260905050330 | 77 | 136 | 3.0 | 8.0 | 0.00 | 0.17 | 0.00 | 80 | 1016.1 |
| 20260905050051 | 77 | 146 | 4.0 | 8.0 | 0.00 | 0.17 | 0.00 | 80 | 1013.5 |
| 20260905045838 | 77 | 145 | 4.0 | 8.0 | 0.00 | 0.17 | 0.17 | 80 | 1016.2 |
| 20260905045521 | 77 | 150 | 4.0 | 5.0 | 0.00 | 0.17 | 0.17 | 80 | 1013.5 |
| 20260905045331 | 77 | 162 | 4.0 | 6.0 | 0.00 | 0.17 | 0.17 | 80 | 1016.4 |
| 20260905045002 | 77 | 132 | 2.0 | 4.0 | 0.00 | 0.17 | 0.17 | 79 | 1013.6 |
| 20260905044830 | 77 | 132 | 2.0 | 4.0 | 0.00 | 0.17 | 0.17 | 79 | 1016.5 |
| 20260905044607 | 77 | 132 | 1.0 | 4.0 | 0.00 | 0.17 | 0.17 | 79 | 1013.7 |
| 20260905044329 | 77 | 132 | 2.0 | 4.0 | 0.00 | 0.17 | 0.17 | 79 | 1016.5 |
| 20260905044048 | 77 | 132 | 2.0 | 3.0 | 0.00 | 0.17 | 0.17 | 79 | 1013.6 |
| 20260905043828 | 77 | 131 | 2.0 | 3.0 | 0.00 | 0.17 | 0.17 | 78 | 1016.4 |
| 20260905043542 | 77 | 132 | 1.0 | 3.0 | 0.00 | 0.17 | 0.17 | 78 | 1013.5 |
| 20260905043326 | 78 | 132 | 1.0 | 3.0 | 0.00 | 0.17 | 0.17 | 78 | 1016.3 |
| 20260905043034 | 77 | 132 | 0.0 | 3.0 | 0.00 | 0.17 | 0.17 | 78 | 1013.5 |
| 20260905042826 | 78 | 132 | 2.0 | 3.0 | 0.00 | 0.17 | 0.17 | 78 | 1016.3 |
| 20260905042528 | 77 | 131 | 2.0 | 3.0 | 0.00 | 0.17 | 0.17 | 78 | 1013.5 |
| 20260905042324 | 78 | 132 | 2.0 | 3.0 | 0.00 | 0.17 | 0.17 | 77 | 1016.3 |
| 20260905042012 | 78 | 132 | 1.0 | 3.0 | 0.00 | 0.17 | 0.17 | 77 | 1013.5 |
| 20260905041823 | 78 | 132 | 1.0 | 2.0 | 0.00 | 0.17 | 0.17 | 77 | 1016.3 |
| 20260905041504 | 78 | 132 | 0.0 | 2.0 | 0.00 | 0.17 | 0.17 | 77 | 1013.5 |
| 20260905041323 | 79 | 132 | 1.0 | 2.0 | 0.00 | 0.17 | 0.17 | 77 | 1016.3 |
| 20260905041102 | 78 | 131 | 0.0 | 2.0 | 0.00 | 0.17 | 0.17 | 77 | 1013.6 |
| 20260905040821 | 79 | 131 | 1.0 | 2.0 | 0.00 | 0.17 | 0.17 | 76 | 1016.3 |
| 20260905040552 | 78 | 133 | 0.0 | 2.0 | 0.00 | 0.17 | 0.17 | 76 | 1013.4 |
| 20260905040320 | 79 | 132 | 1.0 | 2.0 | 0.00 | 0.17 | 0.17 | 76 | 1016.3 |
| 20260905040042 | 79 | 132 | 1.0 | 2.0 | 0.00 | 0.17 | 0.17 | 76 | 1013.5 |
| 20260905035838 | 79 | 132 | 1.0 | 2.0 | 0.00 | 0.17 | 0.17 | 76 | 1016.3 |
| 20260905035533 | 79 | 132 | 1.0 | 2.0 | 0.00 | 0.17 | 0.17 | 76 | 1013.4 |
| 20260905035330 | 79 | 132 | 1.0 | 2.0 | 0.00 | 0.17 | 0.17 | 75 | 1016.2 |
| 20260905035021 | 79 | 132 | 0.0 | 3.0 | 0.00 | 0.17 | 0.17 | 75 | 1013.4 |
| 20260905034829 | 79 | 131 | 1.0 | 3.0 | 0.00 | 0.17 | 0.17 | 75 | 1016.2 |
| 20260905034508 | 79 | 131 | 0.0 | 3.0 | 0.00 | 0.17 | 0.17 | 75 | 1013.3 |
| 20260905034350 | 79 | 131 | 1.0 | 3.0 | 0.00 | 0.17 | 0.17 | 75 | 1016.1 |
| 20260905034041 | 79 | 131 | 0.0 | 2.0 | 0.00 | 0.17 | 0.17 | 74 | 1013.3 |
| 20260905033828 | 79 | 132 | 0.0 | 3.0 | 0.00 | 0.17 | 0.17 | 74 | 1016.0 |
| 20260905033532 | 79 | 132 | 0.0 | 3.0 | 0.00 | 0.17 | 0.17 | 74 | 1013.2 |
| 20260905033326 | 79 | 132 | 1.0 | 3.0 | 0.00 | 0.17 | 0.17 | 74 | 1016.0 |
| 20260905033028 | 79 | 132 | 0.0 | 3.0 | 0.00 | 0.17 | 0.17 | 74 | 1013.2 |
| 20260905032826 | 79 | 132 | 2.0 | 3.0 | 0.00 | 0.17 | 0.17 | 73 | 1016.0 |
| 20260905032512 | 79 | 131 | 0.0 | 1.0 | 0.00 | 0.17 | 0.17 | 73 | 1013.1 |
| 20260905032326 | 80 | 132 | 1.0 | 1.0 | 0.00 | 0.17 | 0.17 | 73 | 1015.9 |
| 20260905032010 | 79 | 132 | 0.0 | 0.0 | 0.00 | 0.17 | 0.17 | 73 | 1013.3 |
| 20260905031825 | 80 | 132 | 0.0 | 0.0 | 0.00 | 0.17 | 0.17 | 73 | 1016.0 |
| 20260905031558 | 79 | 132 | 0.0 | 0.0 | 0.00 | 0.17 | 0.17 | 73 | 1013.3 |
| 20260905031321 | 80 | 132 | 0.0 | 0.0 | 0.00 | 0.17 | 0.17 | 72 | 1016.0 |
| 20260905031051 | 79 | 131 | 0.0 | 0.0 | 0.00 | 0.17 | 0.17 | 72 | 1013.2 |
| 20260905030840 | 80 | 132 | 0.0 | 0.0 | 0.00 | 0.17 | 0.17 | 72 | 1015.9 |
| 20260905030528 | 80 | 132 | 0.0 | 0.0 | 0.00 | 0.17 | 0.17 | 72 | 1013.1 |
| 20260905030336 | 80 | 131 | 0.0 | 1.0 | 0.00 | 0.17 | 0.17 | 72 | 1015.8 |
| 20260905030058 | 80 | 132 | 0.0 | 1.0 | 0.00 | 0.17 | 0.17 | 72 | 1012.9 |
| 20260905025832 | 80 | 131 | 0.0 | 1.0 | 0.00 | 0.17 | 0.17 | 72 | 1015.7 |
| 20260905025532 | 80 | 131 | 0.0 | 1.0 | 0.00 | 0.17 | 0.17 | 73 | 1013.0 |
| 20260905025350 | 80 | 131 | 0.0 | 2.0 | 0.00 | 0.17 | 0.17 | 72 | 1015.7 |
| 20260905025056 | 80 | 132 | 0.0 | 2.0 | 0.00 | 0.17 | 0.17 | 73 | 1012.9 |
| 20260905024829 | 80 | 131 | 0.0 | 2.0 | 0.00 | 0.17 | 0.17 | 73 | 1015.7 |
| 20260905024556 | 80 | 132 | 0.0 | 2.0 | 0.00 | 0.17 | 0.17 | 73 | 1013.0 |
| 20260905024326 | 80 | 132 | 1.0 | 2.0 | 0.00 | 0.17 | 0.17 | 73 | 1015.8 |
| 20260905024037 | 80 | 131 | 0.0 | 3.0 | 0.00 | 0.17 | 0.17 | 72 | 1013.0 |
| 20260905023824 | 81 | 132 | 1.0 | 3.0 | 0.00 | 0.17 | 0.17 | 72 | 1015.7 |
| 20260905023530 | 80 | 132 | 1.0 | 3.0 | 0.00 | 0.17 | 0.17 | 72 | 1012.9 |
| 20260905023322 | 80 | 132 | 1.0 | 3.0 | 0.00 | 0.17 | 0.17 | 72 | 1015.6 |
| 20260905023020 | 80 | 132 | 2.0 | 3.0 | 0.00 | 0.17 | 0.17 | 72 | 1012.7 |
| 20260905022840 | 80 | 131 | 2.0 | 4.0 | 0.00 | 0.17 | 0.17 | 72 | 1015.4 |
| 20260905022543 | 80 | 127 | 1.0 | 4.0 | 0.00 | 0.17 | 0.17 | 72 | 1012.5 |
| 20260905022317 | 81 | 99 | 1.0 | 4.0 | 0.00 | 0.17 | 0.17 | 72 | 1015.4 |
| 20260905022036 | 80 | 112 | 2.0 | 4.0 | 0.00 | 0.17 | 0.17 | 72 | 1012.5 |
| 20260905021815 | 81 | 106 | 3.0 | 4.0 | 0.00 | 0.17 | 0.17 | 72 | 1015.3 |
| 20260905021524 | 80 | 104 | 2.0 | 4.0 | 0.00 | 0.17 | 0.17 | 72 | 1012.5 |
| 20260905021329 | 81 | 124 | 3.0 | 4.0 | 0.00 | 0.17 | 0.17 | 71 | 1015.3 |
| 20260905021011 | 81 | 104 | 2.0 | 4.0 | 0.00 | 0.17 | 0.17 | 71 | 1012.5 |
| 20260905020829 | 81 | 203 | 3.0 | 4.0 | 0.00 | 0.17 | 0.17 | 71 | 1015.3 |
| 20260905020502 | 81 | 203 | 1.0 | 3.0 | 0.00 | 0.17 | 0.17 | 70 | 1012.3 |
| 20260905020326 | 82 | 203 | 2.0 | 3.0 | 0.00 | 0.17 | 0.17 | 70 | 1015.0 |
| 20260905020037 | 81 | 204 | 1.0 | 3.0 | 0.00 | 0.17 | 0.17 | 70 | 1012.4 |
| 20260905015823 | 82 | 203 | 2.0 | 3.0 | 0.00 | 0.17 | 0.17 | 69 | 1015.1 |
| 20260905015526 | 82 | 204 | 1.0 | 3.0 | 0.00 | 0.17 | 0.17 | 69 | 1012.2 |
| 20260905015342 | 82 | 204 | 2.0 | 3.0 | 0.00 | 0.17 | 0.17 | 69 | 1015.0 |
| 20260905015050 | 82 | 204 | 1.0 | 3.0 | 0.00 | 0.17 | 0.17 | 69 | 1012.3 |
| 20260905014818 | 83 | 204 | 2.0 | 3.0 | 0.00 | 0.17 | 0.17 | 68 | 1015.0 |
| 20260905014540 | 82 | 203 | 1.0 | 3.0 | 0.00 | 0.17 | 0.17 | 68 | 1012.2 |
| 20260905014316 | 83 | 203 | 2.0 | 3.0 | 0.00 | 0.17 | 0.17 | 68 | 1015.0 |
| 20260905014030 | 82 | 204 | 1.0 | 3.0 | 0.00 | 0.17 | 0.17 | 67 | 1012.2 |
| 20260905013835 | 83 | 204 | 1.0 | 2.0 | 0.00 | 0.17 | 0.17 | 67 | 1015.0 |
| 20260905013554 | 83 | 204 | 1.0 | 3.0 | 0.00 | 0.17 | 0.17 | 67 | 1012.1 |
| 20260905013331 | 83 | 204 | 1.0 | 4.0 | 0.00 | 0.17 | 0.17 | 67 | 1015.0 |
| 20260905013016 | 83 | 204 | 1.0 | 4.0 | 0.00 | 0.17 | 0.17 | 66 | 1012.1 |
| 20260905012830 | 84 | 203 | 2.0 | 4.0 | 0.00 | 0.17 | 0.17 | 66 | 1014.9 |
| 20260905012509 | 83 | 203 | 2.0 | 3.0 | 0.00 | 0.17 | 0.17 | 66 | 1012.0 |
| 20260905012347 | 84 | 204 | 2.0 | 3.0 | 0.00 | 0.17 | 0.17 | 66 | 1014.9 |
| 20260905012040 | 84 | 204 | 2.0 | 4.0 | 0.00 | 0.17 | 0.17 | 66 | 1012.0 |
| 20260905011824 | 84 | 203 | 2.0 | 4.0 | 0.00 | 0.17 | 0.17 | 65 | 1014.7 |
| 20260905011529 | 84 | 203 | 1.0 | 4.0 | 0.00 | 0.17 | 0.17 | 65 | 1012.0 |
| 20260905011322 | 85 | 204 | 2.0 | 4.0 | 0.00 | 0.17 | 0.17 | 65 | 1014.8 |
| 20260905011025 | 84 | 204 | 1.0 | 4.0 | 0.00 | 0.17 | 0.17 | 64 | 1011.9 |
| 20260905010820 | 85 | 204 | 2.0 | 4.0 | 0.00 | 0.17 | 0.17 | 64 | 1014.8 |
| 20260905010502 | 85 | 204 | 2.0 | 4.0 | 0.00 | 0.17 | 0.17 | 63 | 1011.9 |
| 20260905010318 | 85 | 204 | 3.0 | 4.0 | 0.00 | 0.17 | 0.17 | 63 | 1014.8 |
| 20260905005836 | 86 | 201 | 2.0 | 3.0 | 0.00 | 0.17 | 0.17 | 62 | 1014.8 |
| 20260905005516 | 86 | 195 | 0.0 | 3.0 | 0.00 | 0.17 | 0.17 | 62 | 1011.9 |
| 20260905005354 | 86 | 195 | 2.0 | 3.0 | 0.00 | 0.17 | 0.17 | 61 | 1014.8 |
| 20260905005046 | 86 | 195 | 0.0 | 0.0 | 0.00 | 0.17 | 0.17 | 61 | 1011.8 |
| 20260905004830 | 86 | 195 | 0.0 | 0.0 | 0.00 | 0.17 | 0.17 | 61 | 1014.7 |
| 20260905004507 | 86 | 182 | 0.0 | 0.0 | 0.00 | 0.17 | 0.17 | 60 | 1011.9 |
| 20260905004346 | 87 | 218 | 0.0 | 0.0 | 0.00 | 0.17 | 0.17 | 60 | 1014.6 |
| 20260905004040 | 87 | 218 | 0.0 | 0.0 | 0.00 | 0.17 | 0.17 | 60 | 1011.9 |
| 20260905003823 | 87 | 218 | 0.0 | 0.0 | 0.00 | 0.17 | 0.17 | 59 | 1014.7 |
| 20260905003535 | 87 | 218 | 0.0 | 0.0 | 0.00 | 0.17 | 0.17 | 59 | 1011.8 |
| 20260905003322 | 88 | 201 | 0.0 | 0.0 | 0.00 | 0.17 | 0.17 | 58 | 1014.5 |
| 20260905003025 | 87 | 227 | 0.0 | 0.0 | 0.00 | 0.17 | 0.17 | 58 | 1011.7 |
| 20260905002840 | 88 | 202 | 0.0 | 0.0 | 0.00 | 0.17 | 0.17 | 57 | 1014.7 |
| 20260905002548 | 88 | 194 | 0.0 | 0.0 | 0.00 | 0.17 | 0.17 | 57 | 1011.9 |
| 20260905002316 | 89 | 211 | 0.0 | 0.0 | 0.00 | 0.17 | 0.17 | 56 | 1014.6 |
| 20260905002038 | 89 | 218 | 0.0 | 0.0 | 0.00 | 0.17 | 0.17 | 56 | 1011.7 |
| 20260905001851 | 89 | 234 | 0.0 | 0.0 | 0.00 | 0.17 | 0.17 | 55 | 1014.5 |
| 20260905001603 | 89 | 191 | 0.0 | 0.0 | 0.00 | 0.17 | 0.17 | 55 | 1011.6 |
| 20260905001328 | 90 | 187 | 0.0 | 0.0 | 0.00 | 0.17 | 0.17 | 53 | 1014.5 |
| 20260905001053 | 89 | 172 | 0.0 | 0.0 | 0.00 | 0.17 | 0.17 | 52 | 1011.5 |
| 20260905000826 | 90 | 178 | 0.0 | 0.0 | 0.00 | 0.17 | 0.17 | 52 | 1014.3 |
| 20260905000550 | 90 | 162 | 0.0 | 0.0 | 0.00 | 0.17 | 0.17 | 52 | 1011.3 |
| 20260905000325 | 90 | 157 | 0.0 | 0.0 | 0.00 | 0.17 | 0.17 | 52 | 1014.2 |
| 20260905000048 | 90 | 143 | 0.0 | 0.0 | 0.00 | 0.17 | 0.17 | 52 | 1011.3 |
| 20260904235824 | 90 | 154 | 0.0 | 0.0 | 0.00 | 0.17 | 0.17 | 52 | 1014.2 |
| 20260904235547 | 90 | 153 | 0.0 | 0.0 | 0.00 | 0.17 | 0.17 | 52 | 1011.3 |
| 20260904235322 | 90 | 165 | 0.0 | 0.0 | 0.00 | 0.17 | 0.17 | 52 | 1014.0 |
| 20260904235043 | 90 | 164 | 0.0 | 0.0 | 0.00 | 0.17 | 0.17 | 52 | 1011.1 |
| 20260904234820 | 91 | 130 | 0.0 | 0.0 | 0.00 | 0.17 | 0.17 | 52 | 1014.0 |
| 20260904234534 | 90 | 133 | 0.0 | 0.0 | 0.00 | 0.17 | 0.17 | 51 | 1011.2 |
| 20260904234320 | 91 | 143 | 0.0 | 0.0 | 0.00 | 0.17 | 0.17 | 51 | 1013.9 |
| 20260904234031 | 91 | 160 | 0.0 | 0.0 | 0.00 | 0.17 | 0.17 | 51 | 1011.0 |
| 20260904233839 | 91 | 129 | 0.0 | 0.0 | 0.00 | 0.17 | 0.17 | 51 | 1013.8 |
| 20260904233515 | 91 | 160 | 0.0 | 0.0 | 0.00 | 0.17 | 0.17 | 51 | 1010.9 |
| 20260904233331 | 91 | 168 | 0.0 | 0.0 | 0.00 | 0.17 | 0.17 | 51 | 1013.8 |
| 20260904233002 | 91 | 108 | 0.0 | 0.0 | 0.00 | 0.17 | 0.17 | 51 | 1010.9 |
| 20260904232829 | 91 | 139 | 0.0 | 0.0 | 0.00 | 0.17 | 0.17 | 51 | 1013.7 |
| 20260904232558 | 90 | 149 | 0.0 | 0.0 | 0.00 | 0.17 | 0.17 | 52 | 1010.9 |
| 20260904232329 | 91 | 163 | 0.0 | 0.0 | 0.00 | 0.17 | 0.17 | 51 | 1013.7 |
| 20260904232046 | 90 | 154 | 0.0 | 0.0 | 0.00 | 0.17 | 0.17 | 52 | 1010.8 |
| 20260904231828 | 91 | 154 | 0.0 | 0.0 | 0.00 | 0.17 | 0.17 | 51 | 1013.6 |
| 20260904231550 | 90 | 159 | 0.0 | 0.0 | 0.00 | 0.17 | 0.17 | 51 | 1010.9 |
| 20260904231326 | 91 | 173 | 0.0 | 0.0 | 0.00 | 0.17 | 0.17 | 51 | 1013.8 |
| 20260904231028 | 91 | 170 | 0.0 | 0.0 | 0.00 | 0.17 | 0.17 | 50 | 1010.8 |
| 20260904230826 | 91 | 203 | 0.0 | 0.0 | 0.00 | 0.17 | 0.17 | 50 | 1013.8 |
| 20260904230514 | 91 | 201 | 0.0 | 0.0 | 0.00 | 0.17 | 0.17 | 51 | 1010.8 |
| 20260904230325 | 92 | 147 | 0.0 | 0.0 | 0.00 | 0.17 | 0.17 | 50 | 1013.8 |
| 20260904230015 | 91 | 184 | 0.0 | 0.0 | 0.00 | 0.17 | 0.17 | 49 | 1010.9 |
| 20260904225823 | 92 | 144 | 0.0 | 0.0 | 0.00 | 0.17 | 0.17 | 49 | 1013.7 |
| 20260904225603 | 91 | 181 | 0.0 | 0.0 | 0.00 | 0.17 | 0.17 | 50 | 1010.9 |
| 20260904225323 | 91 | 113 | 0.0 | 0.0 | 0.00 | 0.17 | 0.17 | 50 | 1013.8 |
| 20260904225056 | 91 | 137 | 0.0 | 0.0 | 0.00 | 0.17 | 0.17 | 50 | 1010.9 |
| 20260904224821 | 91 | 170 | 0.0 | 0.0 | 0.00 | 0.17 | 0.17 | 49 | 1013.8 |
| 20260904224547 | 91 | 158 | 0.0 | 0.0 | 0.00 | 0.17 | 0.17 | 50 | 1010.8 |
| 20260904224341 | 92 | 138 | 0.0 | 0.0 | 0.00 | 0.17 | 0.17 | 49 | 1013.8 |
| 20260904224022 | 92 | 160 | 0.0 | 0.0 | 0.00 | 0.17 | 0.17 | 49 | 1010.9 |
| 20260904223838 | 92 | 150 | 0.0 | 0.0 | 0.00 | 0.17 | 0.17 | 50 | 1013.8 |
| 20260904223513 | 92 | 133 | 0.0 | 0.0 | 0.00 | 0.17 | 0.17 | 50 | 1011.0 |
| 20260904223330 | 92 | 116 | 0.0 | 0.0 | 0.00 | 0.17 | 0.17 | 51 | 1013.8 |
| 20260904223058 | 91 | 151 | 0.0 | 0.0 | 0.00 | 0.17 | 0.17 | 51 | 1010.9 |
| 20260904222829 | 92 | 147 | 0.0 | 0.0 | 0.00 | 0.17 | 0.17 | 50 | 1014.0 |
| 20260904222549 | 91 | 143 | 0.0 | 0.0 | 0.00 | 0.17 | 0.17 | 51 | 1011.1 |
| 20260904222327 | 92 | 193 | 0.0 | 0.0 | 0.00 | 0.17 | 0.17 | 52 | 1014.0 |
| 20260904222041 | 91 | 131 | 0.0 | 0.0 | 0.00 | 0.17 | 0.17 | 51 | 1011.0 |
| 20260904221825 | 92 | 146 | 0.0 | 0.0 | 0.00 | 0.17 | 0.17 | 52 | 1013.8 |
| 20260904221541 | 91 | 183 | 0.0 | 0.0 | 0.00 | 0.17 | 0.17 | 53 | 1011.0 |
| 20260904221342 | 91 | 152 | 0.0 | 0.0 | 0.00 | 0.17 | 0.17 | 52 | 1014.0 |
| 20260904221100 | 91 | 154 | 0.0 | 0.0 | 0.00 | 0.17 | 0.17 | 53 | 1011.2 |
| 20260904220820 | 91 | 186 | 0.0 | 0.0 | 0.00 | 0.17 | 0.17 | 53 | 1014.1 |
| 20260904220554 | 90 | 188 | 0.0 | 0.0 | 0.00 | 0.17 | 0.17 | 54 | 1011.1 |
| 20260904220340 | 90 | 165 | 0.0 | 0.0 | 0.00 | 0.17 | 0.17 | 54 | 1014.2 |
| 20260904220027 | 90 | 160 | 0.0 | 0.0 | 0.00 | 0.17 | 0.17 | 54 | 1011.1 |
| 20260904215817 | 90 | 168 | 0.0 | 0.0 | 0.00 | 0.17 | 0.17 | 54 | 1014.1 |
| 20260904215519 | 90 | 154 | 0.0 | 0.0 | 0.00 | 0.17 | 0.17 | 54 | 1011.1 |
| 20260904215316 | 91 | 141 | 0.0 | 0.0 | 0.00 | 0.17 | 0.17 | 54 | 1014.1 |
| 20260904215003 | 91 | 181 | 0.0 | 0.0 | 0.00 | 0.17 | 0.17 | 56 | 1011.3 |
| 20260904214817 | 91 | 204 | 0.0 | 0.0 | 0.00 | 0.17 | 0.17 | 59 | 1014.3 |
| 20260904214600 | 91 | 180 | 0.0 | 0.0 | 0.00 | 0.17 | 0.17 | 59 | 1011.3 |
| 20260904214316 | 91 | 269 | 0.0 | 0.0 | 0.00 | 0.17 | 0.17 | 59 | 1014.5 |
| 20260904214051 | 91 | 299 | 0.0 | 0.0 | 0.00 | 0.17 | 0.17 | 59 | 1011.3 |
| 20260904213834 | 91 | 287 | 0.0 | 0.0 | 0.00 | 0.17 | 0.17 | 59 | 1014.2 |
| 20260904213516 | 91 | 278 | 0.0 | 0.0 | 0.00 | 0.17 | 0.17 | 59 | 1011.2 |
| 20260904213352 | 91 | 278 | 0.0 | 0.0 | 0.00 | 0.17 | 0.17 | 58 | 1014.3 |
| 20260904213048 | 90 | 295 | 0.0 | 0.0 | 0.00 | 0.17 | 0.17 | 58 | 1011.4 |
| 20260904212829 | 91 | 264 | 0.0 | 0.0 | 0.00 | 0.17 | 0.17 | 56 | 1014.4 |
| 20260904212540 | 90 | 144 | 0.0 | 0.0 | 0.00 | 0.17 | 0.17 | 54 | 1011.5 |
| 20260904212347 | 91 | 144 | 0.0 | 0.0 | 0.00 | 0.17 | 0.17 | 53 | 1014.5 |
| 20260904212004 | 90 | 116 | 0.0 | 0.0 | 0.00 | 0.17 | 0.17 | 53 | 1011.6 |
| 20260904211842 | 91 | 118 | 0.0 | 0.0 | 0.00 | 0.17 | 0.17 | 54 | 1014.6 |
| 20260904211535 | 90 | 152 | 0.0 | 0.0 | 0.00 | 0.17 | 0.17 | 53 | 1011.7 |
| 20260904211321 | 91 | 180 | 0.0 | 0.0 | 0.00 | 0.17 | 0.17 | 53 | 1014.7 |
| 20260904211031 | 90 | 158 | 0.0 | 0.0 | 0.00 | 0.17 | 0.17 | 53 | 1011.8 |
| 20260904210820 | 91 | 159 | 0.0 | 0.0 | 0.00 | 0.17 | 0.17 | 53 | 1014.7 |
| 20260904210520 | 91 | 155 | 0.0 | 0.0 | 0.00 | 0.17 | 0.17 | 53 | 1011.8 |
| 20260904210318 | 91 | 144 | 0.0 | 0.0 | 0.00 | 0.17 | 0.17 | 53 | 1014.8 |
| 20260904210021 | 91 | 143 | 0.0 | 0.0 | 0.00 | 0.17 | 0.17 | 53 | 1011.8 |
| 20260904205816 | 92 | 137 | 0.0 | 0.0 | 0.00 | 0.17 | 0.17 | 53 | 1014.8 |
| 20260904205513 | 91 | 138 | 0.0 | 0.0 | 0.00 | 0.17 | 0.17 | 53 | 1011.9 |
| 20260904205314 | 92 | 132 | 0.0 | 0.0 | 0.00 | 0.17 | 0.17 | 53 | 1014.8 |
| 20260904205101 | 92 | 165 | 0.0 | 0.0 | 0.00 | 0.17 | 0.17 | 53 | 1011.8 |
| 20260904204832 | 92 | 134 | 0.0 | 0.0 | 0.00 | 0.17 | 0.17 | 54 | 1014.8 |
| 20260904204555 | 92 | 178 | 0.0 | 0.0 | 0.00 | 0.17 | 0.17 | 54 | 1011.9 |
| 20260904204330 | 92 | 174 | 0.0 | 0.0 | 0.00 | 0.17 | 0.17 | 54 | 1014.9 |
| 20260904204048 | 92 | 147 | 0.0 | 0.0 | 0.00 | 0.17 | 0.17 | 54 | 1012.0 |
| 20260904203829 | 92 | 223 | 0.0 | 0.0 | 0.00 | 0.17 | 0.17 | 55 | 1014.9 |
| 20260904203537 | 91 | 264 | 0.0 | 0.0 | 0.00 | 0.17 | 0.17 | 57 | 1012.0 |
| 20260904203326 | 91 | 236 | 0.0 | 0.0 | 0.00 | 0.17 | 0.17 | 57 | 1014.9 |
| 20260904203030 | 90 | 237 | 0.0 | 0.0 | 0.00 | 0.17 | 0.17 | 57 | 1012.0 |
| 20260904202824 | 91 | 235 | 0.0 | 0.0 | 0.00 | 0.17 | 0.17 | 56 | 1014.9 |
| 20260904202519 | 90 | 196 | 0.0 | 0.0 | 0.00 | 0.17 | 0.17 | 56 | 1012.1 |
| 20260904202321 | 91 | 181 | 0.0 | 0.0 | 0.00 | 0.17 | 0.17 | 56 | 1015.2 |
| 20260904202001 | 90 | 165 | 0.0 | 0.0 | 0.00 | 0.17 | 0.17 | 58 | 1012.2 |
| 20260904201819 | 91 | 203 | 0.0 | 0.0 | 0.00 | 0.17 | 0.17 | 57 | 1015.2 |
| 20260904201557 | 90 | 70 | 0.0 | 0.0 | 0.00 | 0.17 | 0.17 | 58 | 1012.2 |
| 20260904201400 | 90 | 138 | 0.0 | 0.0 | 0.00 | 0.17 | 0.17 | 57 | 1015.2 |
| 20260904201025 | 89 | 127 | 0.0 | 0.0 | 0.00 | 0.17 | 0.17 | 58 | 1012.2 |
| 20260904200830 | 90 | 147 | 0.0 | 0.0 | 0.00 | 0.17 | 0.17 | 55 | 1015.1 |
| 20260904200507 | 89 | 193 | 0.0 | 0.0 | 0.00 | 0.17 | 0.17 | 60 | 1012.2 |
| 20260904200349 | 89 | 167 | 0.0 | 0.0 | 0.00 | 0.17 | 0.17 | 58 | 1015.2 |
| 20260904200056 | 89 | 162 | 0.0 | 0.0 | 0.00 | 0.17 | 0.17 | 61 | 1012.3 |
| 20260904195826 | 89 | 162 | 0.0 | 0.0 | 0.00 | 0.17 | 0.17 | 59 | 1015.4 |
| 20260904195533 | 89 | 162 | 0.0 | 0.0 | 0.00 | 0.17 | 0.17 | 62 | 1012.3 |
| 20260904195324 | 89 | 162 | 0.0 | 0.0 | 0.00 | 0.17 | 0.17 | 66 | 1015.4 |
| 20260904195011 | 89 | 91 | 0.0 | 0.0 | 0.00 | 0.17 | 0.17 | 70 | 1012.4 |
| 20260904194842 | 89 | 349 | 0.0 | 0.0 | 0.00 | 0.17 | 0.17 | 72 | 1015.3 |
| 20260904194545 | 88 | 299 | 0.0 | 0.0 | 0.00 | 0.17 | 0.17 | 72 | 1012.5 |
| 20260904194319 | 88 | 359 | 0.0 | 0.0 | 0.00 | 0.17 | 0.17 | 72 | 1015.5 |
| 20260904194035 | 87 | 289 | 0.0 | 0.0 | 0.00 | 0.17 | 0.17 | 73 | 1012.7 |
| 20260904193837 | 88 | 272 | 0.0 | 0.0 | 0.00 | 0.17 | 0.17 | 73 | 1015.9 |
| 20260904193559 | 87 | 250 | 0.0 | 0.0 | 0.00 | 0.17 | 0.17 | 72 | 1012.8 |
| 20260904193314 | 87 | 270 | 0.0 | 0.0 | 0.00 | 0.17 | 0.17 | 74 | 1015.9 |
| 20260904193050 | 87 | 333 | 0.0 | 0.0 | 0.00 | 0.17 | 0.17 | 74 | 1012.9 |
| 20260904192832 | 87 | 210 | 0.0 | 0.0 | 0.00 | 0.17 | 0.17 | 75 | 1016.0 |
| 20260904192539 | 86 | 249 | 0.0 | 0.0 | 0.00 | 0.17 | 0.17 | 75 | 1012.9 |
| 20260904192350 | 86 | 239 | 0.0 | 0.0 | 0.00 | 0.17 | 0.17 | 75 | 1016.0 |
| 20260904192101 | 86 | 233 | 0.0 | 0.0 | 0.00 | 0.17 | 0.17 | 75 | 1013.0 |
| 20260904191826 | 86 | 252 | 0.0 | 0.0 | 0.00 | 0.17 | 0.17 | 75 | 1016.0 |
| 20260904191551 | 85 | 259 | 0.0 | 0.0 | 0.00 | 0.17 | 0.17 | 76 | 1013.0 |
| 20260904191324 | 85 | 293 | 0.0 | 0.0 | 0.00 | 0.17 | 0.17 | 76 | 1016.0 |
| 20260904191041 | 85 | 280 | 0.0 | 0.0 | 0.00 | 0.17 | 0.17 | 76 | 1013.1 |
| 20260904190822 | 85 | 267 | 0.0 | 0.0 | 0.00 | 0.17 | 0.17 | 76 | 1016.1 |
| 20260904190531 | 85 | 289 | 0.0 | 0.0 | 0.00 | 0.17 | 0.17 | 76 | 1013.1 |
| 20260904190320 | 85 | 237 | 0.0 | 0.0 | 0.00 | 0.17 | 0.17 | 77 | 1016.1 |
| 20260904190022 | 84 | 251 | 0.0 | 0.0 | 0.00 | 0.17 | 0.17 | 77 | 1013.2 |
| 20260904185817 | 84 | 259 | 0.0 | 0.0 | 0.00 | 0.17 | 0.17 | 76 | 1016.2 |
| 20260904185546 | 84 | 224 | 0.0 | 0.0 | 0.00 | 0.17 | 0.17 | 76 | 1013.1 |
| 20260904185315 | 84 | 235 | 0.0 | 0.0 | 0.00 | 0.17 | 0.17 | 76 | 1016.1 |
| 20260904185037 | 84 | 273 | 0.0 | 0.0 | 0.00 | 0.17 | 0.17 | 77 | 1013.1 |
| 20260904184833 | 84 | 260 | 0.0 | 0.0 | 0.00 | 0.17 | 0.17 | 76 | 1016.3 |
| 20260904184536 | 84 | 271 | 0.0 | 0.0 | 0.00 | 0.17 | 0.17 | 77 | 1013.3 |
| 20260904184351 | 84 | 276 | 0.0 | 0.0 | 0.00 | 0.17 | 0.17 | 78 | 1016.4 |
| 20260904184053 | 84 | 250 | 0.0 | 0.0 | 0.00 | 0.17 | 0.17 | 78 | 1013.3 |
| 20260904183829 | 84 | 272 | 0.0 | 0.0 | 0.00 | 0.17 | 0.17 | 78 | 1016.3 |
| 20260904183547 | 83 | 284 | 0.0 | 0.0 | 0.00 | 0.17 | 0.17 | 78 | 1013.3 |
| 20260904183327 | 84 | 264 | 0.0 | 0.0 | 0.00 | 0.17 | 0.17 | 79 | 1016.5 |
| 20260904183041 | 83 | 250 | 0.0 | 0.0 | 0.00 | 0.17 | 0.17 | 79 | 1013.4 |
| 20260904182825 | 83 | 270 | 0.0 | 0.0 | 0.00 | 0.17 | 0.17 | 78 | 1016.6 |
| 20260904182541 | 83 | 264 | 0.0 | 0.0 | 0.00 | 0.17 | 0.17 | 79 | 1013.6 |
| 20260904182323 | 83 | 240 | 0.0 | 0.0 | 0.00 | 0.17 | 0.17 | 79 | 1016.6 |
| 20260904182021 | 83 | 214 | 0.0 | 0.0 | 0.00 | 0.17 | 0.17 | 80 | 1013.7 |
| 20260904181821 | 83 | 258 | 0.0 | 0.0 | 0.00 | 0.17 | 0.17 | 80 | 1016.8 |
| 20260904181505 | 82 | 224 | 0.0 | 0.0 | 0.00 | 0.17 | 0.17 | 81 | 1014.0 |
| 20260904181339 | 83 | 265 | 0.0 | 0.0 | 0.00 | 0.17 | 0.17 | 81 | 1016.9 |
| 20260904181039 | 82 | 256 | 0.0 | 0.0 | 0.00 | 0.17 | 0.17 | 81 | 1013.9 |
| 20260904180836 | 82 | 269 | 0.0 | 0.0 | 0.00 | 0.17 | 0.17 | 81 | 1016.9 |
| 20260904180601 | 82 | 259 | 0.0 | 0.0 | 0.00 | 0.17 | 0.17 | 82 | 1014.0 |
| 20260904180333 | 82 | 252 | 0.0 | 0.0 | 0.00 | 0.17 | 0.17 | 83 | 1017.1 |
| 20260904180052 | 81 | 237 | 0.0 | 0.0 | 0.00 | 0.17 | 0.17 | 82 | 1014.1 |
| 20260904175831 | 82 | 257 | 0.0 | 0.0 | 0.00 | 0.17 | 0.17 | 83 | 1017.1 |
| 20260904175553 | 81 | 241 | 0.0 | 0.0 | 0.00 | 0.17 | 0.17 | 83 | 1014.2 |
| 20260904175346 | 82 | 263 | 0.0 | 0.0 | 0.00 | 0.17 | 0.17 | 83 | 1017.2 |
| 20260904175025 | 81 | 224 | 0.0 | 0.0 | 0.00 | 0.17 | 0.17 | 84 | 1014.2 |
| 20260904174842 | 81 | 229 | 0.0 | 0.0 | 0.00 | 0.17 | 0.17 | 85 | 1017.2 |
| 20260904174553 | 81 | 241 | 0.0 | 0.0 | 0.00 | 0.17 | 0.17 | 86 | 1014.2 |
| 20260904174318 | 81 | 264 | 0.0 | 0.0 | 0.00 | 0.17 | 0.17 | 85 | 1017.2 |
| 20260904174044 | 80 | 218 | 0.0 | 0.0 | 0.00 | 0.17 | 0.17 | 85 | 1014.2 |
| 20260904173816 | 81 | 227 | 0.0 | 0.0 | 0.00 | 0.17 | 0.17 | 86 | 1017.3 |
| 20260904173538 | 80 | 247 | 0.0 | 0.0 | 0.00 | 0.17 | 0.17 | 86 | 1014.2 |
| 20260904173352 | 80 | 229 | 0.0 | 0.0 | 0.00 | 0.17 | 0.17 | 86 | 1017.3 |
| 20260904173006 | 80 | 240 | 0.0 | 4.0 | 0.00 | 0.17 | 0.17 | 87 | 1014.3 |
| 20260904172847 | 80 | 241 | 0.0 | 4.0 | 0.00 | 0.17 | 0.17 | 87 | 1017.4 |
| 20260904172539 | 79 | 260 | 0.0 | 4.0 | 0.00 | 0.17 | 0.17 | 88 | 1014.4 |
| 20260904172323 | 79 | 280 | 2.0 | 5.0 | 0.00 | 0.17 | 0.17 | 87 | 1017.4 |
| 20260904172033 | 78 | 359 | 2.0 | 5.0 | 0.00 | 0.17 | 0.17 | 88 | 1014.5 |
| 20260904171821 | 79 | 270 | 3.0 | 7.0 | 0.00 | 0.17 | 0.17 | 87 | 1017.5 |
| 20260904171526 | 78 | 268 | 4.0 | 7.0 | 0.00 | 0.17 | 0.17 | 87 | 1014.5 |
| 20260904171321 | 79 | 268 | 2.0 | 7.0 | 0.00 | 0.17 | 0.17 | 88 | 1017.6 |
| 20260904171021 | 78 | 273 | 4.0 | 7.0 | 0.00 | 0.17 | 0.17 | 88 | 1014.6 |
| 20260904170819 | 79 | 278 | 5.0 | 7.0 | 0.00 | 0.17 | 0.17 | 88 | 1017.6 |
| 20260904170505 | 79 | 274 | 3.0 | 7.0 | 0.00 | 0.17 | 0.17 | 89 | 1014.7 |
| 20260904170317 | 79 | 245 | 4.0 | 7.0 | 0.00 | 0.17 | 0.17 | 89 | 1017.7 |
| 20260904170057 | 78 | 263 | 2.0 | 5.0 | 0.00 | 0.17 | 0.17 | 89 | 1014.6 |
| 20260904165814 | 79 | 245 | 2.0 | 5.0 | 0.00 | 0.17 | 0.17 | 89 | 1017.6 |
| 20260904165551 | 78 | 237 | 2.0 | 5.0 | 0.01 | 0.17 | 0.17 | 89 | 1014.7 |
| 20260904165314 | 78 | 242 | 3.0 | 5.0 | 0.01 | 0.17 | 0.17 | 89 | 1017.6 |
| 20260904165041 | 77 | 242 | 3.0 | 5.0 | 0.01 | 0.17 | 0.17 | 89 | 1014.7 |
| 20260904164832 | 78 | 229 | 1.0 | 4.0 | 0.03 | 0.17 | 0.17 | 89 | 1017.6 |
| 20260904164534 | 77 | 229 | 2.0 | 4.0 | 0.06 | 0.17 | 0.17 | 89 | 1014.7 |
| 20260904164350 | 78 | 178 | 2.0 | 3.0 | 0.08 | 0.17 | 0.17 | 89 | 1017.6 |
| 20260904164102 | 77 | 178 | 1.0 | 5.0 | 0.09 | 0.17 | 0.17 | 89 | 1014.7 |
| 20260904163829 | 77 | 178 | 1.0 | 6.0 | 0.09 | 0.17 | 0.17 | 89 | 1017.6 |
| 20260904163551 | 77 | 178 | 1.0 | 6.0 | 0.09 | 0.17 | 0.17 | 89 | 1014.6 |
| 20260904163326 | 77 | 178 | 3.0 | 6.0 | 0.09 | 0.17 | 0.17 | 89 | 1017.6 |